Radiation Dose at Monitoring Post of Fukushima Daini Nuclear Power Station
Date,Time,MP-1(microSv/h),MP-2(microSv/h),MP-3(microSv/h),MP-4(microSv/h),MP-5(microSv/h),MP-6(microSv/h),MP-7(microSv/h),Wind Direction,Wind Velocity(m/s),Rain
2015/02/28,00:00,0.541,0.331,0.555,0.504,0.548,0.255,0.225,northwest,6.1,No
2015/02/28,00:10,0.542,0.331,0.555,0.504,0.546,0.255,0.226,north,6.1,No
2015/02/28,00:20,0.540,0.329,0.555,0.504,0.547,0.254,0.226,north,5.7,No
2015/02/28,00:30,0.540,0.329,0.554,0.503,0.548,0.254,0.226,north,4.5,No
2015/02/28,00:40,0.542,0.330,0.556,0.504,0.549,0.255,0.226,north,3.6,No
2015/02/28,00:50,0.540,0.331,0.554,0.504,0.550,0.253,0.225,north,4.0,No
2015/02/28,01:00,0.542,0.329,0.555,0.504,0.548,0.254,0.226,north,3.1,No
2015/02/28,01:10,0.540,0.329,0.554,0.504,0.547,0.254,0.226,north,3.2,No
2015/02/28,01:20,0.541,0.330,0.553,0.503,0.548,0.254,0.227,north,2.0,No
2015/02/28,01:30,0.543,0.329,0.554,0.505,0.548,0.254,0.226,north,2.5,No
2015/02/28,01:40,0.542,0.328,0.553,0.504,0.548,0.255,0.226,north,2.8,No
2015/02/28,01:50,0.542,0.329,0.554,0.503,0.548,0.254,0.226,north,3.3,No
2015/02/28,02:00,0.540,0.330,0.551,0.505,0.546,0.254,0.225,north,2.8,No
2015/02/28,02:10,0.541,0.330,0.555,0.505,0.547,0.255,0.225,north,2.6,No
2015/02/28,02:20,0.539,0.330,0.555,0.505,0.548,0.254,0.226,north-northwest,0.7,No
2015/02/28,02:30,0.539,0.330,0.554,0.504,0.549,0.255,0.226,north-northwest,0.9,No
2015/02/28,02:40,0.540,0.330,0.555,0.503,0.547,0.254,0.226,north-northwest,1.3,No
2015/02/28,02:50,0.539,0.329,0.553,0.505,0.547,0.254,0.225,north-northwest,0.9,No
2015/02/28,03:00,0.544,0.330,0.555,0.503,0.546,0.254,0.226,north-northwest,2.3,No
2015/02/28,03:10,0.540,0.330,0.555,0.505,0.549,0.254,0.227,north-northwest,1.1,No
2015/02/28,03:20,0.539,0.330,0.555,0.504,0.551,0.254,0.226,north,0.6,No
2015/02/28,03:30,0.540,0.331,0.555,0.504,0.549,0.253,0.227,north,2.1,No
2015/02/28,03:40,0.540,0.331,0.555,0.503,0.547,0.255,0.225,north-northwest,0.9,No
2015/02/28,03:50,0.540,0.329,0.554,0.505,0.547,0.253,0.226,west,3.0,No
2015/02/28,04:00,0.539,0.329,0.555,0.505,0.545,0.254,0.225,west-northwest,6.5,No
2015/02/28,04:10,0.540,0.328,0.557,0.504,0.548,0.253,0.227,west-northwest,5.2,No
2015/02/28,04:20,0.539,0.330,0.554,0.506,0.548,0.254,0.226,west-northwest,4.3,No
2015/02/28,04:30,0.539,0.329,0.555,0.503,0.548,0.254,0.225,north,3.2,No
2015/02/28,04:40,0.538,0.329,0.553,0.506,0.545,0.254,0.227,north,1.9,No
2015/02/28,04:50,0.539,0.329,0.556,0.505,0.546,0.254,0.226,north,4.2,No
2015/02/28,05:00,0.539,0.329,0.556,0.504,0.547,0.254,0.226,north-northwest,4.6,No
2015/02/28,05:10,0.538,0.329,0.554,0.504,0.549,0.253,0.225,north-northwest,5.6,No
2015/02/28,05:20,0.540,0.329,0.553,0.504,0.548,0.253,0.225,north-northwest,5.4,No
2015/02/28,05:30,0.539,0.330,0.555,0.503,0.546,0.253,0.226,northwest,6.4,No
2015/02/28,05:40,0.540,0.328,0.557,0.506,0.546,0.254,0.226,northwest,7.3,No
2015/02/28,05:50,0.540,0.328,0.555,0.506,0.547,0.254,0.226,northwest,5.7,No
2015/02/28,06:00,0.540,0.328,0.554,0.505,0.548,0.254,0.225,north,2.7,No
2015/02/28,06:10,0.540,0.329,0.555,0.504,0.546,0.254,0.226,north-northwest,3.9,No
2015/02/28,06:20,0.540,0.330,0.554,0.504,0.546,0.253,0.226,west,5.3,No
2015/02/28,06:30,0.540,0.329,0.557,0.505,0.548,0.255,0.226,west-northwest,1.3,No
2015/02/28,06:40,0.541,0.329,0.554,0.506,0.546,0.253,0.226,west-southwest,1.1,No
2015/02/28,06:50,0.542,0.330,0.554,0.506,0.546,0.254,0.226,north-northwest,2.2,No
2015/02/28,07:00,0.539,0.330,0.553,0.505,0.547,0.254,0.225,north-northwest,3.6,No
2015/02/28,07:10,0.543,0.329,0.555,0.504,0.547,0.254,0.225,north-northwest,2.8,No
2015/02/28,07:20,0.539,0.329,0.554,0.505,0.547,0.254,0.226,north,2.0,No
2015/02/28,07:30,0.542,0.329,0.554,0.505,0.547,0.254,0.225,north,2.0,No
2015/02/28,07:40,0.541,0.330,0.554,0.504,0.548,0.254,0.225,north-northwest,2.1,No
2015/02/28,07:50,0.540,0.328,0.555,0.506,0.548,0.254,0.226,northwest,2.3,No
2015/02/28,08:00,0.541,0.329,0.555,0.505,0.548,0.254,0.224,north-northwest,2.5,No
2015/02/28,08:10,0.541,0.328,0.554,0.505,0.546,0.254,0.225,west-northwest,2.0,No
2015/02/28,08:20,0.541,0.331,0.556,0.505,0.547,0.254,0.224,north,2.9,No
2015/02/28,08:30,0.540,0.329,0.555,0.505,0.547,0.253,0.225,north-northwest,3.0,No
2015/02/28,08:40,0.543,0.327,0.554,0.504,0.547,0.254,0.224,north,4.1,No
2015/02/28,08:50,0.542,0.326,0.554,0.504,0.547,0.254,0.224,north-northwest,3.2,No
2015/02/28,09:00,0.541,0.326,0.552,0.506,0.549,0.254,0.226,north,5.8,No
2015/02/28,09:10,0.542,0.328,0.557,0.505,0.547,0.254,0.223,north,6.9,No
2015/02/28,09:20,0.545,0.329,0.555,0.507,0.546,0.254,0.225,north,7.9,No
2015/02/28,09:30,0.539,0.328,0.554,0.505,0.549,0.255,0.225,north,7.2,No
2015/02/28,09:40,0.541,0.331,0.555,0.506,0.546,0.253,0.224,north-northwest,7.1,No
2015/02/28,09:50,0.541,0.330,0.558,0.506,0.548,0.254,0.225,north-northwest,7.5,No
2015/02/28,10:00,0.541,0.330,0.554,0.503,0.550,0.253,0.225,north-northwest,4.3,No
2015/02/28,10:10,0.541,0.329,0.555,0.504,0.548,0.255,0.225,west,4.5,No
2015/02/28,10:20,0.539,0.329,0.559,0.505,0.552,0.254,0.224,northwest,3.7,No
2015/02/28,10:30,0.543,0.327,0.555,0.505,0.548,0.253,0.226,north-northwest,2.3,No
2015/02/28,10:40,0.539,0.328,0.553,0.505,0.552,0.255,0.226,northwest,0.7,No
2015/02/28,10:50,0.544,0.329,0.557,0.510,0.552,0.254,0.225,west,5.6,No
2015/02/28,11:00,0.544,0.330,0.553,0.505,0.549,0.256,0.226,west,5.8,No
2015/02/28,11:10,0.541,0.331,0.555,0.509,0.555,0.253,0.225,west,6.1,No
2015/02/28,11:20,0.543,0.329,0.552,0.503,0.548,0.254,0.228,west-northwest,6.7,No
2015/02/28,11:30,0.540,0.331,0.555,0.509,0.553,0.254,0.226,west,7.4,No
2015/02/28,11:40,0.542,0.329,0.552,0.503,0.548,0.255,0.226,west-northwest,6.2,No
2015/02/28,11:50,0.540,0.330,0.554,0.508,0.553,0.255,0.227,northwest,5.3,No
2015/02/28,12:00,0.544,0.328,0.555,0.506,0.546,0.255,0.226,west-northwest,6.9,No
2015/02/28,12:10,0.540,0.330,0.554,0.510,0.554,0.255,0.225,west-northwest,7.5,No
2015/02/28,12:20,0.544,0.329,0.557,0.506,0.549,0.254,0.225,west-northwest,7.0,No
2015/02/28,12:30,0.541,0.330,0.553,0.510,0.555,0.256,0.225,northwest,7.8,No
2015/02/28,12:40,0.542,0.331,0.557,0.505,0.549,0.254,0.227,west-northwest,7.6,No
2015/02/28,12:50,0.544,0.329,0.554,0.509,0.555,0.255,0.227,west-northwest,7.0,No
2015/02/28,13:00,0.544,0.333,0.556,0.508,0.549,0.254,0.226,west-northwest,6.7,No
2015/02/28,13:10,0.545,0.329,0.554,0.509,0.554,0.255,0.227,northwest,5.4,No
2015/02/28,13:20,0.546,0.330,0.558,0.508,0.551,0.254,0.226,northwest,5.6,No
2015/02/28,13:30,0.544,0.331,0.555,0.506,0.551,0.256,0.227,northwest,4.5,No
2015/02/28,13:40,0.545,0.329,0.558,0.510,0.551,0.254,0.226,northwest,6.2,No
2015/02/28,13:50,0.542,0.331,0.553,0.507,0.552,0.255,0.226,northwest,4.2,No
2015/02/28,14:00,0.546,0.330,0.557,0.508,0.552,0.255,0.227,northwest,5.6,No
2015/02/28,14:10,0.543,0.331,0.555,0.509,0.549,0.255,0.226,northwest,3.6,No
2015/02/28,14:20,0.543,0.330,0.558,0.509,0.553,0.255,0.227,north-northwest,6.1,No
2015/02/28,14:30,0.544,0.330,0.556,0.510,0.550,0.256,0.227,north-northwest,7.8,No
2015/02/28,14:40,0.544,0.330,0.557,0.508,0.551,0.254,0.227,north-northwest,4.9,No
2015/02/28,14:50,0.547,0.331,0.558,0.511,0.551,0.254,0.227,northwest,5.6,No
2015/02/28,15:00,0.541,0.332,0.557,0.510,0.553,0.254,0.228,north-northwest,4.2,No
2015/02/28,15:10,0.546,0.329,0.560,0.512,0.548,0.255,0.227,north-northwest,4.7,No
2015/02/28,15:20,0.545,0.331,0.558,0.512,0.555,0.254,0.228,northwest,4.5,No
2015/02/28,15:30,0.543,0.332,0.558,0.510,0.553,0.255,0.228,north-northwest,4.2,No
2015/02/28,15:40,0.547,0.331,0.561,0.512,0.553,0.253,0.226,northwest,5.6,No
2015/02/28,15:50,0.545,0.332,0.557,0.510,0.556,0.255,0.227,west-northwest,2.8,No
2015/02/28,16:00,0.545,0.332,0.558,0.510,0.550,0.254,0.226,west-northwest,4.3,No
2015/02/28,16:10,0.544,0.331,0.560,0.511,0.552,0.256,0.226,northwest,1.9,No
2015/02/28,16:20,0.543,0.332,0.556,0.510,0.555,0.254,0.228,north-northwest,0.9,No
2015/02/28,16:30,0.549,0.330,0.559,0.510,0.552,0.254,0.228,north-northwest,2.5,No
2015/02/28,16:40,0.545,0.331,0.560,0.511,0.553,0.255,0.227,north,1.2,No
2015/02/28,16:50,0.543,0.331,0.557,0.510,0.552,0.255,0.226,north,1.9,No
2015/02/28,17:00,0.545,0.331,0.557,0.509,0.551,0.255,0.228,northeast,1.9,No
2015/02/28,17:10,0.543,0.331,0.558,0.510,0.551,0.255,0.227,north,1.9,No
2015/02/28,17:20,0.544,0.330,0.557,0.510,0.551,0.254,0.228,north,2.7,No
2015/02/28,17:30,0.546,0.332,0.558,0.510,0.549,0.255,0.228,north,2.6,No
2015/02/28,17:40,0.545,0.330,0.558,0.511,0.552,0.255,0.228,north-northwest,3.4,No
2015/02/28,17:50,0.544,0.331,0.558,0.510,0.553,0.255,0.227,north,2.2,No
2015/02/28,18:00,0.545,0.331,0.556,0.511,0.551,0.255,0.228,north,3.3,No
2015/02/28,18:10,0.545,0.332,0.559,0.509,0.549,0.255,0.228,north-northwest,3.2,No
2015/02/28,18:20,0.544,0.331,0.558,0.512,0.552,0.254,0.228,west,4.5,No
2015/02/28,18:30,0.546,0.331,0.557,0.509,0.551,0.255,0.227,west,6.9,No
2015/02/28,18:40,0.544,0.332,0.559,0.509,0.551,0.254,0.227,west,5.9,No
2015/02/28,18:50,0.545,0.332,0.559,0.511,0.549,0.255,0.227,west,6.2,No
2015/02/28,19:00,0.544,0.332,0.556,0.510,0.552,0.254,0.228,west,6.1,No
2015/02/28,19:10,0.544,0.332,0.558,0.507,0.551,0.254,0.227,west-northwest,5.5,No
2015/02/28,19:20,0.545,0.332,0.557,0.509,0.550,0.255,0.228,west-northwest,4.2,No
2015/02/28,19:30,0.546,0.331,0.559,0.510,0.549,0.255,0.228,west-northwest,4.2,No
2015/02/28,19:40,0.546,0.332,0.559,0.509,0.552,0.256,0.227,west-northwest,3.9,No
2015/02/28,19:50,0.544,0.331,0.555,0.510,0.551,0.254,0.227,west-northwest,2.0,No
2015/02/28,20:00,0.545,0.332,0.560,0.509,0.548,0.256,0.227,-,CALM,No
2015/02/28,20:10,0.543,0.331,0.558,0.511,0.549,0.256,0.227,north,0.6,No
2015/02/28,20:20,0.544,0.332,0.557,0.511,0.552,0.256,0.227,-,CALM,No
2015/02/28,20:30,0.544,0.331,0.558,0.510,0.549,0.256,0.227,northwest,0.5,No
2015/02/28,20:40,0.544,0.332,0.559,0.509,0.548,0.254,0.229,-,CALM,No
2015/02/28,20:50,0.544,0.330,0.559,0.511,0.549,0.255,0.227,-,CALM,No
2015/02/28,21:00,0.544,0.331,0.558,0.510,0.551,0.255,0.227,-,CALM,No
2015/02/28,21:10,0.544,0.331,0.558,0.510,0.551,0.256,0.228,east,0.5,No
2015/02/28,21:20,0.543,0.330,0.559,0.511,0.549,0.255,0.229,east-northeast,0.7,No
2015/02/28,21:30,0.544,0.330,0.558,0.510,0.547,0.254,0.228,northeast,1.4,No
2015/02/28,21:40,0.543,0.331,0.558,0.512,0.550,0.255,0.227,north,1.4,No
2015/02/28,21:50,0.543,0.331,0.558,0.510,0.551,0.255,0.228,north,1.1,No
2015/02/28,22:00,0.544,0.332,0.560,0.509,0.551,0.255,0.227,north,1.4,No
2015/02/28,22:10,0.544,0.331,0.560,0.511,0.549,0.256,0.227,north-northeast,1.7,No
2015/02/28,22:20,0.544,0.330,0.558,0.511,0.549,0.254,0.228,north,1.2,No
2015/02/28,22:30,0.543,0.329,0.559,0.512,0.552,0.255,0.229,north-northeast,0.5,No
2015/02/28,22:40,0.542,0.331,0.557,0.509,0.550,0.255,0.228,-,CALM,No
2015/02/28,22:50,0.542,0.332,0.560,0.510,0.550,0.254,0.227,-,CALM,No
2015/02/28,23:00,0.546,0.330,0.558,0.510,0.549,0.254,0.228,-,CALM,No
2015/02/28,23:10,0.543,0.330,0.559,0.510,0.551,0.254,0.229,-,CALM,No
2015/02/28,23:20,0.543,0.330,0.556,0.511,0.551,0.254,0.228,-,CALM,No
2015/02/28,23:30,0.544,0.330,0.560,0.510,0.548,0.255,0.227,west,0.7,No
2015/02/28,23:40,0.544,0.330,0.558,0.509,0.548,0.256,0.227,-,CALM,No
2015/02/28,23:50,0.544,0.330,0.557,0.511,0.550,0.255,0.228,-,CALM,No
